FW0486 Weather Reports


time (UTC)temp
C
wind
direction
speed
KPH
gust
KPH
rain 1hr
cm
rain 24hr
cm
rain mn
cm
humidity
%
barometer
mb
20260505124523 17 271 0.0 3.2 0.00 0.00 0.00 43 1005.5
20260505123027 16 258 0.0 3.2 0.00 0.00 0.00 44 1005.4
20260505121614 16 326 0.0 0.0 0.00 0.00 0.00 45 1005.0
20260505120028 16 247 0.0 0.0 0.00 0.00 0.00 45 1004.8
20260505114517 16 274 0.0 1.6 0.00 0.00 0.00 45 1004.7
20260505113011 16 224 0.0 0.0 0.00 0.00 0.00 44 1004.7
20260505111516 17 219 0.0 0.0 0.00 0.00 0.00 42 1004.4
20260505101511 17 195 0.0 4.8 0.00 0.00 0.00 40 1004.5
20260505100004 18 215 0.0 8.0 0.00 0.00 0.00 38 1004.3
20260505094503 17 233 0.0 0.0 0.00 0.00 0.00 40 1004.4
20260505093002 17 269 0.0 0.0 0.00 0.00 0.00 40 1004.3
20260505091608 16 148 0.0 0.0 0.00 0.00 0.00 43 1004.2
20260505090058 17 226 0.0 0.0 0.00 0.00 0.00 41 1004.3
20260505084557 16 230 0.0 1.6 0.00 0.00 0.00 43 1004.7
20260505083100 16 135 0.0 0.0 0.00 0.00 0.00 45 1004.7
20260505081555 18 206 0.0 0.0 0.00 0.00 0.00 38 1004.8
20260505080051 18 192 0.0 0.0 0.00 0.00 0.00 40 1005.0
20260505074549 18 285 0.0 0.0 0.00 0.00 0.00 40 1005.1
20260505073054 17 213 0.0 0.0 0.00 0.00 0.00 42 1005.0
20260505071556 18 206 0.0 0.0 0.00 0.00 0.00 41 1005.1
20260505070045 18 199 0.0 1.6 0.00 0.00 0.00 41 1005.1
20260505064542 18 236 0.0 0.0 0.00 0.00 0.00 40 1004.8
20260505063038 18 27 0.0 0.0 0.00 0.00 0.00 39 1004.6
20260505061535 18 260 0.0 0.0 0.00 0.00 0.00 39 1004.8
20260505060043 20 269 0.0 0.0 0.00 0.00 0.00 37 1005.1
20260505054533 20 278 0.0 0.0 0.00 0.00 0.00 36 1005.5
20260505053030 20 291 0.0 0.0 0.00 0.00 0.00 37 1005.4
20260505051529 20 308 0.0 0.0 0.00 0.00 0.00 37 1005.6
20260505041527 21 304 1.6 25.7 0.00 0.00 0.00 30 1005.8
20260505040026 21 322 0.0 0.0 0.00 0.00 0.00 27 1006.1
20260505034526 22 304 0.0 0.0 0.00 0.00 0.00 26 1006.1
20260505033025 22 294 0.0 9.7 0.00 0.00 0.00 26 1005.5
20260505031524 22 307 6.4 19.3 0.00 0.00 0.00 25 1005.1
20260505030024 23 304 0.0 19.3 0.00 0.00 0.00 24 1004.9
20260505024523 23 283 0.0 3.2 0.00 0.00 0.00 21 1004.6
20260505023025 23 233 0.0 1.6 0.00 0.00 0.00 20 1004.3
20260505021528 24 224 0.0 8.0 0.00 0.00 0.00 20 1004.0
20260505020122 24 236 0.0 4.8 0.00 0.00 0.00 20 1003.9
20260505014521 25 246 0.0 6.4 0.00 0.00 0.00 19 1003.8
20260505013021 25 295 0.0 14.5 0.00 0.00 0.00 18 1003.5
20260505011524 25 300 1.6 20.9 0.00 0.00 0.00 18 1003.3
20260505010019 26 221 1.6 11.3 0.00 0.00 0.00 18 1003.2
20260505004523 26 255 0.0 4.8 0.00 0.00 0.00 18 1002.9
20260505003017 26 282 0.0 8.0 0.00 0.00 0.00 18 1003.1
20260505001517 26 295 0.0 12.9 0.00 0.00 0.00 17 1003.5
20260505000023 27 267 0.0 16.1 0.00 0.00 0.00 17 1003.5
20260504234516 27 224 0.0 22.5 0.00 0.00 0.00 17 1003.5
20260504233015 27 223 0.0 14.5 0.00 0.00 0.00 16 1003.3
20260504231514 28 268 6.4 27.4 0.00 0.00 0.00 16 1003.4
20260504230014 28 248 8.0 35.4 0.00 0.00 0.00 16 1003.2
20260504224518 28 229 3.2 29.0 0.00 0.00 0.00 15 1003.3
20260504223012 28 210 8.0 29.0 0.00 0.00 0.00 15 1003.3
20260504221511 28 227 3.2 41.8 0.00 0.00 0.00 15 1003.7
20260504220008 28 245 1.6 33.8 0.00 0.00 0.00 15 1003.8
20260504214508 28 225 11.3 45.1 0.00 0.00 0.00 14 1004.5
20260504213004 28 191 16.1 33.8 0.00 0.00 0.00 14 1004.5
20260504211600 28 207 8.0 35.4 0.00 0.00 0.00 14 1004.8
20260504210101 27 198 1.6 45.1 0.00 0.00 0.00 16 1005.0
20260504204555 27 190 19.3 38.6 0.00 0.00 0.00 16 1005.3
20260504203103 26 209 12.9 24.1 0.00 0.00 0.00 15 1005.5
20260504201611 26 223 3.2 32.2 0.00 0.00 0.00 15 1005.6
20260504200052 26 215 24.1 38.6 0.00 0.00 0.00 16 1005.7
20260504194553 26 203 8.0 25.7 0.00 0.00 0.00 16 1005.5
20260504193048 26 221 0.0 37.0 0.00 0.00 0.00 17 1005.7
20260504191555 26 208 12.9 32.2 0.00 0.00 0.00 17 1006.0
20260504190047 27 243 9.7 27.4 0.00 0.00 0.00 19 1006.3
20260504184553 27 188 14.5 30.6 0.00 0.00 0.00 20 1006.3
20260504183039 26 214 6.4 25.7 0.00 0.00 0.00 20 1006.4
20260504181536 25 260 0.0 17.7 0.00 0.00 0.00 22 1006.9
20260504180031 25 210 4.8 25.7 0.00 0.00 0.00 22 1007.3
20260504174528 25 201 0.0 20.9 0.00 0.00 0.00 24 1007.6
20260504173028 24 149 0.0 8.0 0.00 0.00 0.00 24 1007.9
20260504171524 24 200 0.0 20.9 0.00 0.00 0.00 25 1008.3
20260504140111 15 113 0.0 0.0 0.00 0.00 0.00 59 1008.5